INTELSAT 20 (IS-20) 1 38740U 12043A 21060.61864014 -.00000032 00000-0 00000+0 0 9996 2 38740 0.0220 137.4688 0001161 39.0179 274.3301 1.00272870 31442 HYLAS 2 1 38741U 12043B 21060.68293302 .00000146 00000-0 00000-0 0 9996 2 38741 0.0504 293.2746 0002069 46.6052 96.6726 1.00272911 31370 ARIANE 5 R/B 1 38742U 12043C 21059.44493314 .00001432 00000-0 50237-3 0 9993 2 38742 5.5095 171.9368 7157370 354.0653 0.6167 2.43318286 74346